Queretaro Airport,

9:11 PM CDT on May 20, 2018 (GMT -0500)
Queretaro Airport

Weather History for MMQT - November, 2013

Change the Weather History Date:

Saturday, November 9, 2013

  Actual Average Record
Temperature  
Mean Temperature 66 °F -  
Max Temperature 79 °F 71 °F 83 °F (2015)
Min Temperature 53 °F 46 °F 28 °F (2010)
Cooling Degree Days 1    
Growing Degree Days 16 (Base 50)    
Moisture  
Dew Point 49 °F    
Average Humidity 65    
Maximum Humidity 88    
Minimum Humidity 25    
Precipitation  
Precipitation 0.00 in - - ()
Sea Level Pressure  
Sea Level Pressure 30.20 in    
Wind  
Wind Speed 4 mph ()    
Max Wind Speed 16 mph    
Max Gust Speed -    
Visibility 8.5 miles    
Events Fog    
Averages and records for this station are not official NWS values.
T = Trace of Precipitation, MM = Missing Value Source: Averaged Metar Reports

Daily Weather History Graph

Daily Weather History Graph

Search for Another Location

Airport or City:

Astronomy

Nov. 09, 2013 Rise Set
Actual Time 6:47 AM CST 6:01 PM CST
Civil Twilight 6:24 AM CST 6:24 PM CST
Nautical Twilight 5:57 AM CST 6:51 PM CST
Astronomical Twilight 5:31 AM CST 7:17 PM CST
Moon 12:33 PM CST (11/9) No Moon Set
Length of Visible Light 12h 00m
Length of Day
11h 14m
Waxing Crescent, 44% of the Moon is Illuminated
Nov 9
Waxing Crescent
Nov 9
First Quarter
Nov 17
Full
Nov 25
Last Quarter
Dec 2
New

Hourly Weather History & Observations

Time (CST) Temp. Dew Point Humidity Pressure Visibility Wind Dir Wind Speed Gust Speed Precip Events Conditions
12:45 AM 53.6 °F 48.2 °F 82% 30.34 in 10.0 mi ENE 4.6 mph - N/A   Clear
1:45 AM 53.6 °F 48.2 °F 82% 30.34 in 10.0 mi North - - N/A   Clear
2:40 AM 54 °F 49 °F 76% 29.91 in 3 mi South 2.2 mph - -   Mostly Cloudy
2:45 AM 53.6 °F 48.2 °F 82% 30.04 in 10.0 mi ENE 5.8 mph - N/A   Unknown
3:45 AM 53.6 °F 48.2 °F 82% 30.34 in 10.0 mi Calm Calm - N/A   Clear
4:45 AM 53.6 °F 48.2 °F 82% 30.34 in 10.0 mi Calm Calm - N/A   Clear
5:45 AM 53.6 °F 48.2 °F 82% 30.32 in 7.0 mi East 5.8 mph - N/A   Mostly Cloudy
5:50 AM 53 °F 49 °F 81% 29.95 in 3 mi East 4.5 mph - -   Overcast
6:45 AM 51.8 °F 46.4 °F 82% 30.34 in 7.0 mi Calm Calm - N/A   Mostly Cloudy
7:45 AM 51.8 °F 46.4 °F 82% 30.34 in 3.0 mi Calm Calm - N/A   Overcast
8:40 AM 55 °F 49 °F 75% 30.04 in 16 mi East 8.9 mph - - Fog Light Fog
8:45 AM 53.6 °F 50.0 °F 88% 30.32 in 3.0 mi Calm Calm - N/A   Overcast
9:45 AM 53.6 °F 50.0 °F 88% 30.35 in 4.0 mi Calm Calm - N/A   Overcast
10:45 AM 60.8 °F 53.6 °F 77% 30.34 in 5.0 mi Calm Calm - N/A   Mostly Cloudy
11:40 AM 68 °F 51 °F 45% 30.00 in 16 mi North 6.7 mph - -   Scattered Clouds
11:45 AM 68.0 °F 50.0 °F 52% 30.34 in 5.0 mi Calm Calm - N/A   Scattered Clouds
12:45 PM 77.0 °F 50.0 °F 39% 30.32 in 5.0 mi Calm Calm - N/A   Mostly Cloudy
1:45 PM 78.8 °F 51.8 °F 39% 30.28 in 5.0 mi South 5.8 mph - N/A   Mostly Cloudy
2:45 PM 77.0 °F 51.8 °F 41% 30.25 in 7.0 mi ENE 5.8 mph - N/A   Mostly Cloudy
2:50 PM 79 °F 49 °F 25% 29.83 in 12 mi WNW 2.2 mph - -   Scattered Clouds
3:45 PM 73.4 °F 50.0 °F 44% 30.25 in 7.0 mi ENE 13.8 mph - N/A   Mostly Cloudy
4:50 PM 73.4 °F 50.0 °F 44% 30.24 in 10.0 mi ENE 16.1 mph - N/A   Mostly Cloudy
5:45 PM 68.0 °F 50.0 °F 52% 30.24 in 12.0 mi NE 11.5 mph - N/A   Mostly Cloudy
5:48 PM 72 °F 49 °F 33% 29.77 in 12 mi East 4.5 mph - -   Scattered Clouds
6:45 PM 66.2 °F 50.0 °F 56% 30.25 in 12.0 mi ENE 9.2 mph - N/A   Mostly Cloudy
7:45 PM 62.6 °F 48.2 °F 59% 30.28 in 10.0 mi Calm Calm - N/A   Scattered Clouds
8:45 PM 59.0 °F 48.2 °F 67% 30.31 in 10.0 mi Calm Calm - N/A   Scattered Clouds
8:55 PM 63 °F 50 °F 52% 29.82 in 12 mi SE 11.2 mph - -   Scattered Clouds
9:50 PM 57.2 °F 46.4 °F 67% 30.33 in 8.0 mi Calm Calm - N/A   Scattered Clouds
10:50 PM 55.4 °F 46.4 °F 72% 30.34 in 8.0 mi ENE 5.8 mph - N/A   Scattered Clouds
11:45 PM 55.4 °F 46.4 °F 72% 30.34 in 8.0 mi NE 9.2 mph - N/A   Scattered Clouds
11:55 PM 56 °F 49 °F 71% 29.84 in 12 mi SE 6.7 mph - -   Scattered Clouds